K7EK Weather Reports


time (UTC)temp
C
wind
direction
speed
KPH
gust
KPH
rain 1hr
cm
rain 24hr
cm
rain mn
cm
humidity
%
barometer
mb
20260504014556 11 0 0.0 0.0 0.00 0.00 0.00 64 1013.8
20260504013103 12 0 0.0 0.0 0.00 0.00 0.00 64 1013.5
20260504011549 12 0 0.0 0.0 0.00 0.00 0.00 60 1013.1
20260504010104 13 0 0.0 1.6 0.00 0.00 0.00 57 1013.3
20260504004550 14 0 0.0 1.6 0.00 0.00 0.00 55 1013.0
20260504003051 15 0 0.0 6.4 0.00 0.00 0.00 52 1012.9
20260504001551 16 0 0.0 6.4 0.00 0.00 0.00 50 1012.9
20260504000049 16 154 3.2 20.9 0.00 0.00 0.00 47 1013.1
20260503234550 17 150 6.4 19.3 0.00 0.00 0.00 46 1013.2
20260503233053 17 309 4.8 12.9 0.00 0.00 0.00 47 1013.1
20260503231544 17 128 3.2 17.7 0.00 0.00 0.00 47 1013.3
20260503230048 17 165 9.7 25.7 0.00 0.00 0.00 44 1013.6
20260503224544 17 232 4.8 14.5 0.00 0.00 0.00 45 1014.0
20260503223048 17 176 4.8 20.9 0.00 0.00 0.00 45 1014.2
20260503221555 17 262 4.8 17.7 0.00 0.00 0.00 44 1014.2
20260503220101 17 269 8.0 19.3 0.00 0.00 0.00 45 1014.6
20260503214546 17 158 4.8 17.7 0.00 0.00 0.00 43 1015.0
20260503213048 17 282 11.3 22.5 0.00 0.00 0.00 43 1015.1
20260503211542 17 99 3.2 17.7 0.00 0.00 0.00 43 1014.8
20260503210054 17 201 4.8 20.9 0.00 0.00 0.00 41 1015.3
20260503204602 17 207 8.0 20.9 0.00 0.00 0.00 41 1015.5
20260503203058 17 273 4.8 16.1 0.00 0.00 0.00 40 1015.4
20260503201551 17 259 6.4 22.5 0.00 0.00 0.00 42 1015.9
20260503200050 17 165 8.0 22.5 0.00 0.00 0.00 40 1016.3
20260503194608 17 179 6.4 20.9 0.00 0.00 0.00 40 1016.9
20260503193050 16 214 9.7 22.5 0.00 0.00 0.00 43 1017.1
20260503191601 16 205 6.4 22.5 0.00 0.00 0.00 40 1017.2
20260503190058 16 260 6.4 22.5 0.00 0.00 0.00 42 1017.6
20260503184554 16 176 4.8 20.9 0.00 0.00 0.00 41 1017.7
20260503183057 16 293 3.2 17.7 0.00 0.00 0.00 40 1018.0
20260503181552 16 5 6.4 16.1 0.00 0.00 0.00 40 1018.2
20260503180105 16 197 6.4 12.9 0.00 0.00 0.00 40 1018.4
20260503174551 15 184 4.8 12.9 0.00 0.00 0.00 41 1018.6
20260503173139 15 211 4.8 17.7 0.00 0.00 0.00 45 1018.7
20260503171549 15 263 4.8 16.1 0.00 0.00 0.00 41 1019.0
20260503081556 1 0 0.0 0.0 0.00 0.00 0.00 96 1019.2
20260503071551 1 0 0.0 0.0 0.00 0.00 0.00 95 1018.9
20260503054549 2 0 0.0 0.0 0.00 0.00 0.00 94 1018.9
20260503053052 2 0 0.0 0.0 0.00 0.00 0.00 93 1018.9
20260503051550 2 0 0.0 0.0 0.00 0.00 0.00 93 1018.9
20260503050046 3 0 0.0 0.0 0.00 0.00 0.00 92 1019.0
20260503044548 3 0 0.0 0.0 0.00 0.00 0.00 92 1018.9
20260503043049 3 0 0.0 0.0 0.00 0.00 0.00 91 1018.9
20260503041552 3 0 0.0 0.0 0.00 0.00 0.00 89 1018.7
20260503040049 4 0 0.0 0.0 0.00 0.00 0.00 88 1018.6
20260503034549 5 0 0.0 0.0 0.00 0.00 0.00 88 1018.6
20260503033050 5 0 0.0 1.6 0.00 0.00 0.00 90 1018.6
20260503031601 5 0 0.0 1.6 0.00 0.00 0.00 88 1018.4
20260503030050 5 0 0.0 0.0 0.00 0.00 0.00 86 1018.3
20260503024551 5 0 0.0 0.0 0.00 0.00 0.00 86 1018.2
20260503023048 5 0 0.0 0.0 0.00 0.00 0.00 85 1018.1
20260503021549 5 0 0.0 0.0 0.00 0.00 0.00 83 1017.9
20260503020056 6 0 0.0 0.0 0.00 0.00 0.00 81 1017.8